Probability
0 0 0 0 0 0 0 0 0 0 0 0 0 0 1 0 0 0 0 0 0 0 0 0 0 0 0 0 0 0 0 0 0 0 0 0 0 0
0 0 0 0 0 0 0 0 0 0 0 0 0 0 1 0 0 0 0 0 0 0 0 0 0 0 0 0 0 0 0 0 0 0 0 0 0 0
0 0 0 0 0 0 0 0 0 0 0 0 0 0 1 1 1 0 0 0 0 0 0 0 0 0 0 0 0 0 0 0 0 0 0 0 0 0
0 0 0 0 0 0 0 0 0 0 0 0 0 0 0 1 2 1 0 0 0 0 0 0 0 0 0 0 0 0 0 0 0 0 0 0 0 0
0 0 0 0 0 0 0 0 0 0 0 0 0 0 0 1 2 1 1 2 1 0 0 0 0 0 0 0 0 0 0 0 0 0 0 0 0 0
0 0 0 0 0 0 0 0 0 0 0 0 0 0 0 1 2 2 2 3 2 1 0 0 0 0 0 0 0 0 0 0 0 0 0 0 0 0
0 0 0 0 0 0 0 0 0 0 0 0 0 0 0 0 1 1 2 2 2 1 0 0 0 0 0 0 0 0 0 0 0 0 0 0 0 0
0 0 0 0 0 0 0 0 0 0 0 0 0 0 0 0 0 0 1 1 1 0 0 0 0 0 0 0 0 0 0 0 0 0 0 0 0 0
0 0 0 0 0 0 0 0 0 0 0 0 0 0 0 0 0 0 0 0 0 0 0 0 0 0 0 0 0 0 0 0 0 0 0 0 0 0
0 0 0 0 0 0 0 0 0 0 0 0 0 0 0 0 0 0 0 0 0 0 0 0 0 0 0 0 0 0 0 0 0 0 0 0 0 0
0 0 0 0 0 0 0 0 0 0 0 0 0 0 0 0 0 0 0 0 0 0 0 0 0 0 0 0 0 0 0 0 0 0 0 0 0 0
0 0 0 0 0 0 0 0 0 0 0 0 0 0 0 0 0 0 0 0 0 0 0 0 0 0 0 0 0 0 0 0 0 0 0 0 0 0
0 0 0 0 0 0 0 0 0 0 0 0 0 0 0 0 0 0 0 0 0 0 0 0 0 0 0 0 0 0 0 0 0 0 0 0 0 0
1 1 0 0 0 0 0 0 0 0 0 0 0 0 0 0 0 0 0 0 0 0 0 0 0 0 0 0 0 0 0 0 0 0 0 0 0 0
1 1 0 0 0 0 0 0 0 0 0 0 0 0 0 0 0 0 0 0 0 0 0 0 0 0 0 0 0 0 0 0 0 0 0 0 0 0
1 0 0 0 0 0 0 0 0 0 0 0 0 0 0 0 0 0 0 0 0 0 0 0 0 0 0 0 0 0 0 0 0 0 0 0 0 0
0 0 0 0 0 0 0 0 0 0 0 0 0 0 0 0 0 0 0 0 0 0 0 0 0 0 0 0 0 0 0 0 0 0 0 0 0 0
0 0 0 0 0 0 0 0 0 0 0 0 0 0 0 0 0 0 0 0 0 0 0 0 0 0 0 0 0 0 0 0 0 0 0 0 0 0
0 0 0 0 0 0 0 0 0 0 0 0 0 0 0 0 0 0 0 0 0 0 0 0 0 0 0 0 0 0 0 0 0 0 0 0 0 0
0 0 0 0 0 0 0 0 0 0 0 0 0 0 0 0 0 0 0 0 0 0 0 0 0 0 0 0 0 0 0 0 0 0 0 0 0 0
0 0 0 0 0 0 0 0 0 0 0 0 0 0 0 0 0 0 0 0 0 0 0 0 0 0 0 0 0 0 0 0 0 0 0 0 0 0
0 0 0 0 0 0 0 0 0 0 0 0 0 0 0 0 0 0 0 0 0 0 0 0 0 0 0 0 0 0 0 0 0 0 0 0 0 0
0 0 0 0 0 0 0 0 0 0 0 0 0 0 0 0 0 0 0 0 0 0 0 0 0 0 0 0 0 0 0 0 0 0 0 0 0 0
Wind_Speed
2 2 1 2 1 1 1 1 1 1 2 3 2 3 3 3 3 3 5 9 8 9 10 10 11 11 11 12 13 13 13 12 12 12 12 12 12 11
1 2 2 2 2 1 1 1 1 1 2 2 2 2 2 2 4 4 5 6 6 7 8 8 9 9 10 10 11 11 12 12 11 11 11 11 10 10
3 3 3 2 2 1 1 1 1 1 2 2 2 2 2 3 3 2 3 2 4 6 6 7 7 8 8 8 9 10 10 10 10 10 10 9 9 9
3 3 3 2 2 1 1 1 1 1 1 2 1 1 2 2 2 2 2 2 2 5 4 5 5 6 6 6 7 8 9 9 10 9 9 8 8 8
2 2 3 3 2 2 1 1 1 2 1 1 2 1 1 1 1 1 1 2 2 3 3 2 3 3 4 4 5 6 7 8 8 9 8 8 8 7
2 2 2 2 2 2 1 2 1 2 1 1 1 1 1 1 1 1 1 1 1 1 1 1 1 1 1 2 3 4 5 6 6 6 7 7 7 7
3 3 3 4 6 4 2 2 1 1 1 0 0 0 0 1 1 2 2 2 1 1 2 1 1 1 1 2 1 2 3 4 5 5 5 5 6 6
3 3 4 3 3 3 3 4 3 1 1 1 1 1 2 1 1 2 2 3 2 1 3 3 2 2 2 2 3 1 1 2 3 3 4 4 5 6
2 2 2 2 1 2 4 4 2 1 1 3 2 2 3 3 2 3 3 4 4 3 3 4 2 2 2 2 3 0 1 2 2 3 4 4 5 5
1 1 1 2 2 1 1 1 1 2 0 2 2 2 3 3 3 4 4 4 4 2 2 4 3 3 3 2 3 1 1 2 3 4 5 5 6 6
2 2 1 2 4 1 1 1 1 2 3 2 3 3 4 4 3 3 3 3 4 2 1 4 4 5 4 3 2 4 3 3 3 4 5 5 6 8
2 2 4 3 4 1 1 0 1 1 0 1 2 2 2 1 1 3 3 4 4 3 2 3 4 5 4 2 2 2 2 3 4 5 4 4 5 6
2 2 3 4 3 2 2 2 2 3 1 1 1 1 1 1 1 2 2 3 4 4 3 3 5 5 5 5 4 3 4 4 4 4 4 4 5 6
2 2 4 5 4 3 1 3 2 2 1 1 1 2 2 2 2 3 3 3 3 4 4 4 4 5 6 7 6 4 4 5 5 5 5 4 5 7
2 6 6 5 4 4 3 2 0 1 1 1 1 2 2 3 3 2 3 2 3 2 3 4 5 5 6 7 7 6 6 5 4 5 6 6 6 5
4 5 6 4 2 2 3 2 0 1 2 2 2 2 2 2 2 2 3 3 3 2 2 4 5 6 6 7 7 7 6 6 5 5 7 7 7 6
4 3 3 3 2 2 1 1 1 1 1 1 2 2 2 2 2 2 3 4 4 4 3 3 4 4 6 6 6 6 6 6 6 6 7 8 7 7
4 3 2 2 1 1 1 1 0 1 1 1 2 2 2 3 3 2 3 4 4 5 5 4 4 5 5 3 3 6 6 7 7 7 7 8 8 7
3 2 2 1 1 1 0 0 0 1 1 1 2 2 3 3 3 3 3 4 4 5 5 4 4 5 7 8 3 2 7 7 7 7 7 8 9 8
2 2 1 1 1 0 0 0 1 1 1 1 2 2 3 3 3 4 4 5 5 5 5 4 4 5 7 9 9 6 5 7 7 8 8 9 9 9
2 2 1 1 1 0 0 0 1 1 1 2 2 2 3 3 3 4 4 5 6 5 6 5 5 6 7 7 8 7 5 4 6 8 10 9 9 9
2 2 1 1 1 0 0 0 1 1 1 2 2 2 3 3 4 5 5 5 5 5 6 6 6 5 6 7 9 10 9 8 7 10 11 10 8 9
2 2 1 1 1 0 0 0 1 1 1 2 2 3 3 3 4 4 5 5 5 6 6 6 6 6 6 7 8 9 11 11 8 8 8 8 12 15
Wind_Direction
105 114 101 92 78 65 40 333 333 78 90 78 65 56 50 56 42 49 60 61 49 46 45 45 45 44 45 43 42 41 41 41 42 41 42 43 44 48
76 94 95 95 82 78 46 359 343 0 62 73 67 65 51 61 61 50 65 85 66 52 48 47 46 45 45 43 40 38 38 39 39 38 39 40 43 46
117 106 100 84 98 100 81 63 41 41 85 84 79 83 80 53 63 55 58 59 77 68 50 47 46 45 44 41 38 35 33 33 33 35 35 36 38 41
102 108 109 113 99 84 76 80 81 65 80 85 77 60 43 41 33 30 47 56 63 83 65 50 47 46 43 40 38 35 32 31 30 30 31 34 35 37
98 96 105 115 113 100 89 78 85 90 86 102 73 52 22 38 22 12 40 34 38 108 118 96 64 50 42 39 37 35 33 32 30 28 28 29 31 33
95 86 80 79 77 91 91 85 91 99 98 96 88 77 43 13 318 345 357 9 333 17 45 52 135 158 105 51 40 33 29 28 27 28 29 27 25 23
115 104 79 52 35 29 22 45 81 94 106 83 52 3 13 350 345 331 332 322 312 347 319 318 310 312 190 166 127 29 23 23 22 20 22 20 16 11
119 113 113 124 111 102 54 32 12 353 359 340 321 324 348 354 341 303 316 314 316 11 313 310 313 317 330 354 60 63 355 5 7 6 7 6 359 350
102 110 103 99 155 133 136 165 140 75 321 311 309 337 338 354 322 308 314 310 308 333 312 297 304 307 323 32 101 146 293 321 332 338 339 337 334 330
96 97 133 127 88 37 124 125 96 98 85 267 316 344 351 346 312 301 304 297 290 275 282 294 312 312 316 319 137 187 260 288 309 318 320 321 317 310
108 78 68 107 73 9 225 117 109 112 110 88 23 20 29 11 328 293 297 295 299 306 321 296 311 310 294 277 169 180 218 247 271 292 304 310 311 298
124 110 70 45 73 10 249 264 302 13 56 142 177 192 229 164 229 283 302 300 306 312 22 308 312 319 301 295 317 300 258 227 233 248 263 286 302 297
144 134 99 101 93 58 322 355 12 339 336 335 342 349 341 348 341 316 317 306 306 310 352 321 310 310 300 306 305 308 317 318 302 276 246 244 265 281
135 120 100 109 100 77 59 51 32 311 320 339 342 346 350 350 347 342 333 318 312 315 328 318 305 308 302 299 303 312 310 310 308 307 308 284 258 251
96 78 92 114 129 113 80 57 241 303 340 333 340 351 350 347 347 339 325 321 305 310 319 312 302 300 294 295 302 308 307 304 303 307 309 306 301 296
142 122 119 108 113 89 121 136 87 19 348 347 349 349 344 342 335 330 318 310 296 295 323 324 314 307 295 296 297 300 305 307 312 308 306 301 298 296
149 150 149 145 147 142 128 95 78 90 35 353 338 334 335 333 339 339 324 313 309 313 317 322 313 302 293 295 295 299 304 306 312 316 308 300 297 299
153 157 159 164 175 178 165 143 112 30 358 337 327 324 324 323 322 325 319 312 311 315 318 325 322 310 293 274 274 299 305 307 309 306 299 298 297 301
168 166 167 176 181 184 197 264 329 7 342 322 314 314 312 311 311 313 313 310 310 311 314 318 319 315 308 306 306 267 302 304 304 301 300 298 298 302
176 169 161 160 164 176 226 306 322 328 317 309 307 308 307 307 308 309 310 313 309 307 306 310 314 312 304 304 304 300 274 296 304 302 303 300 296 294
156 155 152 156 160 160 345 308 302 312 318 306 309 311 310 307 307 307 307 310 301 303 307 309 315 297 291 293 291 294 300 271 279 294 303 302 302 301
153 154 150 144 145 174 230 274 283 303 306 302 309 307 308 306 305 305 306 306 305 306 306 308 311 305 299 296 298 302 306 306 282 261 259 265 292 299
151 147 141 135 138 159 221 268 292 308 307 306 304 302 303 302 303 302 302 302 305 306 308 309 309 304 301 299 299 301 305 308 307 302 290 258 250 263